This demonstration page uses our WeatherBlox Daily Observations layout. Learn more.

Left ArrowRight Arrow

Hourly Observations for June 4, 2017

Temp ( °F °C ) Dew Point ( °F °C ) Humidity (%) Winds ( mph kmh ) Pressure ( in mb ) Visibility ( mi km ) Precip ( " mm )
12:51 am 00:51 Clear 77 25 33 0.6 20 20 E 7 11 29.71 1006 10 16 N/A
1:51 am 01:51 Clear 79 26.1 40 4.4 25 25 E 8 13 29.71 1006 10 16 N/A
2:51 am 02:51 Clear 77 25 40 4.4 26 26 SE 8 13 29.70 1006 10 16 N/A
3:51 am 03:51 Clear 74 23.3 40 4.4 29 29 SSE 7 11 29.73 1007 10 16 N/A
4:51 am 04:51 Clear 76 24.4 42 5.6 30 30 E 9 15 29.73 1007 10 16 N/A
5:51 am 05:51 Sunny 78 25.6 43 6.1 29 29 E 7 11 29.75 1007 10 16 N/A
6:51 am 06:51 Sunny 83 28.3 43 6.1 24 24 E 10 17 29.75 1008 10 16 N/A
7:51 am 07:51 Sunny 85 29.4 44 6.7 24 24 ESE 7 11 29.77 1008 10 16 N/A
8:51 am 08:51 Sunny 88 31.1 44 6.7 22 22 ESE 7 11 29.79 1009 10 16 N/A
9:51 am 09:51 Sunny 91 32.8 44 6.7 20 20 E 7 11 29.77 1008 10 16 N/A
10:51 am 10:51 Sunny 94 34.4 43 6.1 17 17 VRB 7 11 29.75 1008 10 16 N/A
11:51 am 11:51 Sunny 95 35 40 4.4 15 15 SSE 5 7 29.74 1007 10 16 N/A
12:51 pm 12:51 Sunny 99 37.2 38 3.3 12 12 WSW 9 15 29.70 1006 10 16 N/A
1:51 pm 13:51 Sunny 100 37.8 33 0.6 10 10 VRB 6 9 29.67 1005 10 16 N/A
2:51 pm 14:51 Mostly Sunny 101 38.3 29 -1.7 8 8 VRB 3 6 29.65 1004 10 16 N/A
3:51 pm 15:51 Mostly Cloudy 101 38.3 31 -0.6 8 8 W 14 22 29.62 1003 10 16 N/A
4:51 pm 16:51 Partly Cloudy 101 38.3 30 -1.1 8 8 WNW 6 9 29.60 1003 10 16 N/A
5:51 pm 17:51 Partly Cloudy 100 37.8 32 undefined 9 9 W 8 13 29.60 1002 10 16 N/A
6:51 pm 18:51 Partly Cloudy 98 36.7 30 -1.1 9 9 WNW 8 13 29.60 1002 10 16 N/A
7:51 pm 19:51 Mostly Clear 92 33.3 28 -2.2 10 10 NW 8 13 29.61 1003 10 16 N/A
8:51 pm 20:51 Clear 91 32.8 32 undefined 12 12 WNW 14 22 29.63 1003 10 16 N/A
9:51 pm 21:51 Clear 88 31.1 31 -0.6 13 13 NW 10 17 29.65 1004 10 16 N/A
10:51 pm 22:51 Clear 84 28.9 32 undefined 15 15 NW 10 17 29.65 1004 10 16 N/A
11:51 pm 23:51 Clear 85 29.4 32 undefined 15 15 NW 13 20 29.65 1004 10 16 N/A

Powered by AerisWeather